Lake Lucerne Weather Center

Moon Phase Calendar



Lake Lucerne Water Level
Online Cameras

 


      

Current Conditions in Mountain Park
2/24/2021 9:13:10 PM

57°F
Feels Like 50
Clear
Humidity
33%
Pressure
30.06"
Wind
4.6 mph (SW)
Dew Point
28°F
UV Index
0/10 (Low)
Visibility
6 mi

Hourly Forecast

Date & Time Wed, Feb 24
9:00 PM
Wed, Feb 24
10:00 PM
Wed, Feb 24
11:00 PM
Thu, Feb 25
12:00 AM
Thu, Feb 25
1:00 AM
Thu, Feb 25
2:00 AM
Thu, Feb 25
3:00 AM
Thu, Feb 25
4:00 AM
Thu, Feb 25
5:00 AM
Thu, Feb 25
6:00 AM
Thu, Feb 25
7:00 AM
Thu, Feb 25
8:00 AM
Thu, Feb 25
9:00 AM
Thu, Feb 25
10:00 AM
Thu, Feb 25
11:00 AM
Thu, Feb 25
12:00 PM
Thu, Feb 25
1:00 PM
Thu, Feb 25
2:00 PM
Thu, Feb 25
3:00 PM
Thu, Feb 25
4:00 PM
Thu, Feb 25
5:00 PM
Thu, Feb 25
6:00 PM
Thu, Feb 25
7:00 PM
Thu, Feb 25
8:00 PM
Thu, Feb 25
9:00 PM
Thu, Feb 25
10:00 PM
Thu, Feb 25
11:00 PM
Fri, Feb 26
12:00 AM
Fri, Feb 26
1:00 AM
Fri, Feb 26
2:00 AM
Fri, Feb 26
3:00 AM
Fri, Feb 26
4:00 AM
Fri, Feb 26
5:00 AM
Fri, Feb 26
6:00 AM
Fri, Feb 26
7:00 AM
Fri, Feb 26
8:00 AM
Fri, Feb 26
9:00 AM
Fri, Feb 26
10:00 AM
Fri, Feb 26
11:00 AM
Fri, Feb 26
12:00 PM
Fri, Feb 26
1:00 PM
Fri, Feb 26
2:00 PM
Fri, Feb 26
3:00 PM
Fri, Feb 26
4:00 PM
Fri, Feb 26
5:00 PM
Fri, Feb 26
6:00 PM
Fri, Feb 26
7:00 PM
Fri, Feb 26
8:00 PM
Condition
Clear

Clear

Clear

Clear

Clear

Clear

Clouds

Clouds

Clouds

Clouds

Clouds

Clear

Clouds

Clouds

Clear

Clear

Clear

Clear

Clear

Clear

Clear

Clear

Clear

Clear

Clear

Clear

Clouds

Clouds

Clouds

Clouds

Clouds

Clouds

Clouds

Clouds

Rain

Rain

Rain

Rain

Rain

Rain

Rain

Rain

Rain

Rain

Rain

Rain

Rain

Rain
Temperature 57°F56°F56°F54°F53°F53°F54°F54°F55°F54°F52°F53°F56°F59°F63°F66°F68°F69°F70°F69°F68°F64°F61°F59°F58°F56°F55°F54°F54°F54°F52°F51°F51°F51°F50°F48°F48°F47°F47°F49°F48°F47°F47°F46°F46°F46°F45°F45°F
Feels Like 50°F51°F50°F49°F48°F48°F49°F50°F50°F50°F48°F49°F52°F55°F58°F61°F63°F64°F65°F64°F63°F60°F56°F54°F52°F51°F50°F49°F49°F49°F47°F46°F45°F44°F43°F41°F41°F42°F39°F44°F43°F40°F40°F39°F37°F38°F36°F36°F
Cloudiness 1%1%0%0%0%0%31%50%63%62%55%2%15%12%9%7%6%0%0%0%0%0%0%0%0%1%15%24%36%100%88%92%95%96%96%100%100%100%100%100%100%100%100%100%100%100%100%100%
Visibility 6 mi6 mi6 mi6 mi6 mi6 mi6 mi6 mi6 mi6 mi6 mi6 mi6 mi6 mi6 mi6 mi6 mi6 mi6 mi6 mi6 mi6 mi6 mi6 mi6 mi6 mi6 mi6 mi6 mi6 mi6 mi6 mi6 mi6 mi6 mi5 mi6 mi2 mi4 mi6 mi2 mi2 mi3 mi3 mi6 mi6 mi6 mi6 mi
Precipitation 0%0%0%0%0%0%0%0%0%0%0%0%0%0%0%0%0%0%0%0%0%0%0%0%0%0%0%0%0%0%0%0%0%17%59%100%100%100%100%100%100%100%100%100%100%100%100%49%
Humidity 33%45%54%58%60%60%60%59%59%63%67%69%63%58%53%48%44%42%41%42%46%52%55%54%52%51%51%53%54%57%71%81%81%76%73%82%85%90%93%90%92%92%92%92%92%91%91%91%
Dew Point 28°F35°F39°F40°F40°F39°F40°F40°F41°F42°F42°F43°F44°F44°F45°F46°F46°F45°F45°F45°F46°F46°F44°F42°F40°F38°F37°F37°F38°F39°F42°F46°F45°F43°F41°F43°F44°F45°F45°F47°F46°F45°F44°F44°F44°F43°F42°F42°F
Pressure 30.06"30.09"30.12"30.12"30.09"30.09"30.09"30.09"30.09"30.12"30.15"30.15"30.18"30.15"30.15"30.15"30.15"30.12"30.09"30.09"30.09"30.12"30.15"30.15"30.18"30.18"30.18"30.18"30.18"30.18"30.18"30.15"30.18"30.18"30.18"30.18"30.21"30.21"30.24"30.21"30.21"30.18"30.18"30.15"30.15"30.18"30.21"30.21"
Wind Speed 5.1 mph5.1 mph5.2 mph5.1 mph5.1 mph4.8 mph4.5 mph4.8 mph5 mph4.5 mph4.6 mph4.8 mph5.7 mph5.9 mph6.2 mph5.9 mph6.4 mph6.9 mph6.8 mph7.3 mph7.2 mph6.6 mph6.6 mph6.6 mph6.2 mph4.5 mph4.3 mph4.4 mph4.4 mph5.2 mph5.4 mph8.7 mph8.2 mph8.2 mph8.3 mph9.3 mph10.4 mph7.5 mph12.9 mph8.5 mph7.5 mph10.4 mph9.4 mph10.3 mph13.7 mph12.4 mph12.6 mph12.1 mph
Wind
Direction
232°
SW
235°
SW
246°
WSW
250°
WSW
256°
WSW
251°
WSW
246°
WSW
270°
W
277°
W
285°
WNW
281°
W
279°
W
292°
WNW
297°
WNW
299°
WNW
292°
WNW
288°
WNW
289°
WNW
291°
WNW
296°
WNW
301°
WNW
310°
NW
309°
NW
314°
NW
321°
NW
330°
NNW
335°
NNW
347°
NNW

N
51°
NE
45°
NE
52°
NE
61°
ENE
52°
NE
51°
NE
77°
ENE
72°
ENE
70°
ENE
88°
E
61°
ENE
42°
NE
53°
NE
39°
NE
52°
NE
85°
E
84°
E
89°
E
77°
ENE

Daily Forecast

Date High Low Precip. Humidity
Today
Feb 24

Clear
69 °F
48 °F
0%
35%
Thursday
Feb 25

Clear
70 °F
52 °F
0%
48%
Friday
Feb 26

Rain
54 °F
45 °F
100%
91%
Saturday
Feb 27

Rain
72 °F
45 °F
100%
67%
Sunday
Feb 28

Rain
73 °F
60 °F
96%
61%
Monday
Mar 1

Rain
62 °F
49 °F
93%
62%
Tuesday
Mar 2

Clouds
58 °F
42 °F
0%
42%
Wednesday
Mar 3

Clear
64 °F
39 °F
0%
42%
Thursday
Mar 4

Clear
67 °F
48 °F
0%
36%
Friday
Mar 5

Clouds
64 °F
46 °F
0%
44%
Saturday
Mar 6

Clouds
63 °F
47 °F
0%
47%
Sunday
Mar 7

Rain
60 °F
47 °F
40%
63%
Monday
Mar 8

Rain
70 °F
54 °F
72%
60%
Tuesday
Mar 9

Rain
64 °F
49 °F
100%
55%
Wednesday
Mar 10

Clear
53 °F
38 °F
0%
41%
Thursday
Mar 11

Clouds
60 °F
35 °F
17%
34%


Temperature 8-14 Day Outlook



Precipitation 8-14 Day Outlook




Quick Links
Lake Lucerne News
Lake Lucerne Photos
Lake Lucerne Videos




About Us
Contact Us
Site Map
Search Site
Advertise With Us
   
LakeLucern.LakesOnline.com
THE LAKE LUCERNE WEBSITE

Copyright 2021, Lakes Online
Privacy    |    Legal